Weather History for Marion, VA

Change the Weather History Date:

Monday, May 19, 2014

  Actual Average (KGEV) Record (KGEV)
Temperature  
Mean Temperature 52 °F -  
Max Temperature 68 °F 74 °F 81 °F (1974)
Min Temperature 35 °F 48 °F 33 °F (1970)
Degree Days  
Heating Degree Days 14    
Growing Degree Days 2 (Base 50)    
Moisture  
Dew Point 37 °F    
Average Humidity 66    
Maximum Humidity 100    
Minimum Humidity 21    
Precipitation  
Precipitation 0.00 in - - ()
Sea Level Pressure  
Sea Level Pressure 30.28 in    
Wind  
Wind Speed 1 mph (WSW)    
Max Wind Speed 9 mph    
Max Gust Speed -    
Visibility 10 miles    
Events      
Averages and records for this station are not official NWS values.
T = Trace of Precipitation, MM = Missing Value Source: NWS Daily Summary

Daily Weather History Graph

Daily Weather History Graph

Search for Another Location

Airport:

Trip Planner

Search our weather history database for the weather conditions in past years. The results will help you decide how hot, cold, wet, or windy it might be!

Date:

Astronomy

May. 19, 2014 Rise Set
Actual Time 6:14 AM EDT 8:29 PM EDT
Civil Twilight 5:45 AM EDT 8:59 PM EDT
Nautical Twilight 5:09 AM EDT 9:35 PM EDT
Astronomical Twilight 4:30 AM EDT 10:14 PM EDT
Moon 12:18 AM EDT (5/19) 11:08 AM EDT (5/19)
Length of Visible Light 15h 13m
Length of Day
14h 15m
Waning Gibbous, 71% of the Moon is Illuminated
May 19
Waning Gibbous
May 21
Last Quarter
May 28
New
Jun 5
First Quarter
Jun 13
Full

Hourly Weather History & Observations

Time (EDT) Temp. Dew Point Humidity Pressure Visibility Wind Dir Wind Speed Gust Speed Precip Events Conditions
12:15 AM 42.8 °F 38.7 °F 85% 30.28 in 10.0 mi Calm Calm - N/A   Clear
12:35 AM 41.4 °F 41.4 °F 100% 30.28 in 10.0 mi Calm Calm - N/A   Clear
12:55 AM 41.2 °F 41.2 °F 100% 30.28 in 10.0 mi Calm Calm - N/A   Clear
1:15 AM 40.1 °F 40.1 °F 100% 30.28 in 10.0 mi Calm Calm - N/A   Clear
1:35 AM 39.6 °F 39.6 °F 100% 30.27 in 10.0 mi Calm Calm - N/A   Clear
1:55 AM 39.6 °F 39.6 °F 100% 30.27 in 10.0 mi Calm Calm - N/A   Clear
2:15 AM 39.6 °F 39.6 °F 100% 30.27 in 10.0 mi Calm Calm - N/A   Clear
2:35 AM 38.7 °F 38.7 °F 100% 30.27 in 10.0 mi Calm Calm - N/A   Clear
2:55 AM 38.3 °F 38.3 °F 100% 30.27 in 10.0 mi Calm Calm - N/A   Clear
3:15 AM 38.5 °F 38.5 °F 100% 30.27 in 10.0 mi Calm Calm - N/A   Clear
3:35 AM 37.4 °F 37.4 °F 100% 30.27 in 10.0 mi Calm Calm - N/A   Clear
3:55 AM 37.0 °F 37.0 °F 100% 30.27 in 10.0 mi Calm Calm - N/A   Clear
4:15 AM 36.9 °F 36.9 °F 100% 30.28 in 10.0 mi Calm Calm - N/A   Clear
4:35 AM 37.2 °F 37.2 °F 100% 30.28 in 10.0 mi Calm Calm - N/A   Clear
4:55 AM 36.1 °F 36.1 °F 100% 30.28 in 10.0 mi Calm Calm - N/A   Clear
5:15 AM 36.5 °F 36.5 °F 100% 30.29 in 10.0 mi Calm Calm - N/A   Clear
5:35 AM 36.0 °F 36.0 °F 100% 30.30 in 10.0 mi Calm Calm - N/A   Clear
5:55 AM 35.6 °F 35.6 °F 100% 30.30 in 10.0 mi Calm Calm - N/A   Clear
6:15 AM 35.8 °F 35.8 °F 100% 30.31 in 7.0 mi Calm Calm - N/A   Clear
6:35 AM 35.6 °F 35.6 °F 100% 30.32 in 7.0 mi Calm Calm - N/A   Clear
6:55 AM 36.5 °F 36.5 °F 100% 30.33 in 10.0 mi Calm Calm - N/A   Clear
7:15 AM 38.1 °F 38.1 °F 100% 30.33 in 10.0 mi Calm Calm - N/A   Clear
7:35 AM 40.6 °F 40.6 °F 100% 30.34 in 10.0 mi Calm Calm - N/A   Clear
7:55 AM 44.1 °F 41.4 °F 90% 30.34 in 10.0 mi Calm Calm - N/A   Clear
8:15 AM 46.8 °F 41.4 °F 81% 30.35 in 10.0 mi Calm Calm - N/A   Clear
8:35 AM 50.0 °F 40.8 °F 71% 30.35 in 10.0 mi East 4.6 mph - N/A   Clear
10:35 AM 58.1 °F 43.2 °F 58% 30.34 in 10.0 mi ESE 4.6 mph - N/A   Clear
10:55 AM 57.9 °F 41.4 °F 54% 30.34 in 10.0 mi Calm Calm - N/A   Clear
11:15 AM 58.6 °F 42.1 °F 54% 30.33 in 10.0 mi Calm Calm - N/A   Clear
11:35 AM 61.0 °F 41.4 °F 48% 30.32 in 10.0 mi South 3.5 mph - N/A   Clear
11:55 AM 62.2 °F 40.5 °F 45% 30.32 in 10.0 mi Calm Calm - N/A   Clear
12:15 PM 61.2 °F 39.4 °F 45% 30.32 in 10.0 mi WSW 4.6 mph - N/A   Scattered Clouds
12:35 PM 63.1 °F 37.9 °F 39% 30.31 in 10.0 mi Calm Calm - N/A   Scattered Clouds
12:55 PM 64.0 °F 37.4 °F 37% 30.31 in 10.0 mi West 8.1 mph - N/A   Clear
1:15 PM 64.2 °F 39.2 °F 40% 30.30 in 10.0 mi WNW 8.1 mph - N/A   Clear
1:35 PM 64.9 °F 37.9 °F 37% 30.30 in 10.0 mi SW 5.8 mph - N/A   Clear
1:55 PM 64.2 °F 35.2 °F 34% 30.30 in 10.0 mi SW 8.1 mph - N/A   Clear
2:15 PM 63.9 °F 34.5 °F 34% 30.29 in 10.0 mi West 9.2 mph - N/A   Clear
2:35 PM 65.3 °F 32.4 °F 29% 30.28 in 10.0 mi West 8.1 mph - N/A   Clear
2:55 PM 65.7 °F 28.2 °F 24% 30.28 in 10.0 mi West 3.5 mph - N/A   Clear
3:15 PM 66.9 °F 33.3 °F 29% 30.26 in 10.0 mi WSW 8.1 mph - N/A   Clear
3:35 PM 66.9 °F 26.1 °F 21% 30.26 in 10.0 mi West 6.9 mph - N/A   Clear
4:15 PM 67.8 °F 26.2 °F 21% 30.26 in 10.0 mi WSW 9.2 mph - N/A   Clear
4:35 PM 67.5 °F 26.1 °F 21% 30.26 in 10.0 mi West 6.9 mph - N/A   Clear
4:55 PM 68.2 °F 27.5 °F 22% 30.26 in 10.0 mi SW 4.6 mph - N/A   Clear
5:15 PM 68.0 °F 26.8 °F 21% 30.25 in 10.0 mi West 8.1 mph - N/A   Clear
5:35 PM 67.1 °F 32.5 °F 28% 30.25 in 10.0 mi WSW 6.9 mph - N/A   Clear
5:55 PM 66.4 °F 33.4 °F 29% 30.25 in 10.0 mi Calm Calm - N/A   Clear
6:15 PM 66.7 °F 34.0 °F 30% 30.25 in 10.0 mi SSW 3.5 mph - N/A   Clear
6:55 PM 66.0 °F 33.6 °F 30% 30.25 in 10.0 mi West 4.6 mph - N/A   Clear
7:35 PM 62.8 °F 36.0 °F 37% 30.25 in 10.0 mi WSW 8.1 mph - N/A   Clear
7:55 PM 61.9 °F 36.0 °F 38% 30.25 in 10.0 mi West 4.6 mph - N/A   Clear
8:15 PM 61.5 °F 36.5 °F 39% 30.25 in 10.0 mi Calm Calm - N/A   Clear
8:35 PM 58.6 °F 38.5 °F 47% 30.25 in 10.0 mi Calm Calm - N/A   Clear
8:55 PM 57.2 °F 39.4 °F 51% 30.26 in 10.0 mi Calm Calm - N/A   Clear
9:15 PM 54.5 °F 40.6 °F 60% 30.26 in 10.0 mi Calm Calm - N/A   Clear
9:35 PM 52.9 °F 41.4 °F 65% 30.26 in 10.0 mi Calm Calm - N/A   Clear
9:55 PM 51.4 °F 41.2 °F 68% 30.26 in 10.0 mi Calm Calm - N/A   Clear
10:15 PM 51.4 °F 41.0 °F 68% 30.27 in 10.0 mi Calm Calm - N/A   Clear
10:35 PM 50.2 °F 41.2 °F 71% 30.27 in 10.0 mi Calm Calm - N/A   Clear
10:55 PM 49.5 °F 41.2 °F 73% 30.27 in 10.0 mi Calm Calm - N/A   Clear
11:15 PM 49.3 °F 41.0 °F 73% 30.27 in 10.0 mi Calm Calm - N/A   Clear
11:35 PM 48.7 °F 41.2 °F 75% 30.27 in 10.0 mi Calm Calm - N/A   Clear
11:55 PM 47.7 °F 41.4 °F 79% 30.27 in 10.0 mi Calm Calm - N/A   Clear